567  
ASUS41 KCTP 130710  
RWRCTP  
 
REGIONAL WEATHER ROUNDUP  
NATIONAL WEATHER SERVICE STATE COLLEGE PA  
300 AM EDT TUE APR 13 2021  
 
NOTE: "FAIR" INDICATES FEW OR NO CLOUDS BELOW 12,000 FEET WITH NO  
SIGNIFICANT WEATHER AND/OR S TO VISIBILITY
.  
 
* = STATION THAT DOES NOT REPORT PRECIPITATION /E.G. RAIN...SNOW...ETC/  
THUNDER OR FOG.
 
 
PAZ002>004-007>009-013>016-020>023-029>032-130800-  
WESTERN PENNSYLVANIA  
 
CITY SKY/WX TMP DP RH WIND PRES REMARKS
 
ERIE PTCLDY 48 43 82 CALM 29.95S  
MEADVILLE PTCLDY 44 43 96 S3 29.95S  
FRANKLIN FOG 37 37 100 SW5 29.96S VSB 1/4  
NEW CASTLE FOG 40 40 100 CALM N/A VSB 1/2  
BEAVER COUNTY CLEAR 48 47 97 CALM 29.96S FOG  
BUTLER FOG 42 42 100 CALM 29.97R VSB 1/4  
PITTSBURGH INT PTCLDY 45 43 93 CALM 29.96S FOG  
PITTSBURGH CLEAR 47 46 97 CALM 29.96S FOG  
INDIANA* CLOUDY 48 48 100 CALM 29.99S  
LATROBE CLOUDY 50 50 100 CALM 29.97S  
WASHINGTON CO* CLOUDY 47 47 100 SW3 30.00S  

 
 
PAZ004>006-010>012-017>019-024>028-033>037-041-042-045-046-049>053-130800-  
CENTRAL PENNSYLVANIA  
 
CITY SKY/WX TMP DP RH WIND PRES REMARKS
 
BRADFORD MOCLDY 40 38 93 CALM 29.93S  
ST MARYS MOSUNNY 41 41 100 CALM 29.96R FOG  
DUBOIS FOG 46 44 93 W3 29.93S VSB 3/4  
CLEARFIELD FOG 44 44 100 CALM 29.93S VSB 1/4  
JOHNSTOWN CLOUDY 46 44 93 W6 29.94R  
SOMERSET CLOUDY 45 43 93 CALM 29.96S  
ALTOONA MOCLDY 47 44 90 SW6 29.94S  
STATE COLLEGE CLOUDY 48 48 100 CALM 29.94S FOG  
REEDSVILLE CLOUDY 48 N/A N/A CALM 29.95S FOG  
WELLSBORO CLOUDY 43 43 100 S6 29.94R FOG  
WILLIAMSPORT CLOUDY 47 43 86 CALM 29.96S  
SELINSGROVE CLOUDY 47 45 93 CALM 29.97S  
FT INDIANTOWN CLOUDY 47 47 100 CALM 29.97R  
CAPITAL CITY CLOUDY 50 43 77 CALM 29.97R  
HARRISBURG CLOUDY 50 42 74 NE3 29.96S  
YORK CLOUDY 48 43 82 CALM 29.96S  

 
 
PAZ038>040-043-044-047-048-054-055-060>062-067>071-130800-  
EASTERN PENNSYLVANIA  
 
CITY SKY/WX TMP DP RH WIND PRES REMARKS
 
TOWANDA CLOUDY 46 46 100 CALM 30.00S  
SCRANTON CLOUDY 45 39 79 E6 29.97R  
MOUNT POCONO CLOUDY 38 35 89 NE6 29.94S  
HAZLETON CLOUDY 43 41 93 CALM 29.97S  
LEHIGHTON CLOUDY 45 45 100 CALM 29.98R  
ALLENTOWN CLOUDY 46 42 86 NE10 29.97R  
QN CITY/ALNTWN CLOUDY 46 45 93 N7 29.97S  
QUAKERTOWN* CLOUDY 46 46 100 CALM 29.96R  
PERKASIE* CLOUDY 45 45 100 N3 29.96S  
DOYLESTOWN LGT RAIN 45 43 93 CALM 29.96R  
READING NOT AVBL  
LANCASTER CLOUDY 49 42 77 CALM 29.96S  
COATESVILLE CLOUDY 46 43 87 CALM 29.97S  
WEST CHESTER CLOUDY 46 43 87 CALM 29.96S  
POTTSTOWN LGT RAIN 46 43 89 CALM 29.97S  
BLUE BELL CLOUDY 44 44 99 E6 29.97R FOG  
NORTH PHILA CLOUDY 45 45 100 CALM 29.98R FOG  
PHILADELPHIA CLOUDY 46 45 96 SE3 29.97R  

 
 
 
CLICK HERE TO GO TO PREVIOUS BULLETINS.

The Nexlab PA Page Main Text Page